Temp
45 45 44 44 44 45 45 44 45 45 45 45 44 46 44 46 46 44 43 43 43 42 43 42 43 42 45 44 43 44 44 44 44 44 43 44 44 44 45 44 43 44
44 44 43 43 43 43 44 44 44 44 44 44 45 44 46 45 45 45 43 43 42 42 41 41 41 42 42 42 41 41 42 42 42 43 43 41 42 42 44 44 43 44
43 43 43 43 43 43 43 43 43 43 43 44 44 44 45 45 45 44 44 42 42 41 41 41 40 40 40 38 38 40 40 39 40 40 40 40 40 40 42 42 43 43
42 42 42 42 42 42 42 42 42 42 42 41 42 43 44 43 43 42 42 41 40 39 38 37 37 38 37 37 36 39 38 38 39 39 39 39 39 39 40 40 41 42
41 41 42 42 41 42 42 41 41 41 41 41 41 42 41 40 40 39 39 39 38 37 38 38 36 37 37 38 36 38 38 38 37 37 38 38 39 39 40 39 39 40
40 40 41 41 41 41 41 41 41 41 41 40 41 41 41 40 38 38 38 38 38 38 37 36 36 37 37 37 37 38 38 38 38 36 37 38 38 38 39 39 39 39
37 38 39 40 41 40 40 39 39 39 39 39 37 38 38 38 37 37 38 37 37 37 37 37 35 36 36 36 36 37 37 37 37 36 37 37 37 38 38 37 38 39
36 36 37 37 37 37 37 37 38 38 39 38 37 37 36 36 36 37 37 37 37 37 37 36 35 35 36 35 36 36 36 38 37 36 36 36 36 37 37 38 38 38
37 36 35 34 35 36 36 37 37 37 38 38 38 38 38 36 36 37 37 37 37 37 37 37 37 36 36 35 35 35 36 36 37 36 36 36 36 37 37 37 37 38
36 36 36 35 34 34 33 34 36 36 36 37 37 37 37 38 38 38 38 37 37 38 37 37 36 36 37 37 37 36 36 36 36 36 36 36 37 37 37 37 37 37
35 35 34 33 33 34 34 33 34 34 35 35 36 36 36 36 37 37 37 37 37 37 37 37 37 37 36 36 36 35 36 36 36 36 36 36 37 37 38 37 37 37
35 35 35 34 33 33 33 33 34 33 33 33 33 34 34 35 35 36 36 36 36 37 37 37 38 37 37 36 35 35 36 36 37 37 37 37 37 36 37 37 38 38
32 32 33 33 33 33 33 32 32 33 32 32 33 32 33 33 34 34 35 35 36 36 36 37 37 37 37 37 37 37 36 36 36 36 37 37 37 37 37 37 38 39
32 32 32 33 32 31 31 31 32 31 32 32 32 32 32 32 33 33 34 34 35 35 35 35 36 36 37 37 37 37 36 35 35 35 35 36 37 37 37 37 37 37
32 31 31 31 32 31 31 32 32 32 32 32 31 31 32 31 31 32 32 32 33 34 35 35 35 36 36 37 36 36 35 35 35 35 35 35 36 37 37 37 37 38
31 30 32 32 32 32 32 32 32 32 32 32 32 32 32 32 31 31 31 31 31 31 32 33 34 35 36 38 39 37 35 35 35 34 35 35 35 35 36 37 37 37
32 32 32 31 32 31 30 30 31 31 30 30 30 30 31 31 31 31 31 32 32 32 31 32 33 34 37 39 40 41 38 34 33 33 33 33 33 33 34 35 36 36
32 33 33 32 32 31 31 30 30 30 30 29 29 29 29 29 29 30 31 31 32 32 32 32 33 36 38 39 40 40 40 36 33 32 32 32 32 32 33 33 34 34
31 31 31 31 31 31 31 31 30 30 30 29 29 30 29 28 28 29 29 30 31 31 31 32 32 36 38 39 39 40 40 39 34 32 32 32 32 32 32 33 33 33
31 30 30 30 30 30 30 30 30 29 30 30 30 29 29 29 29 28 29 29 29 30 30 31 31 34 37 38 38 39 39 39 34 33 32 32 32 32 32 32 33 33
29 29 28 29 29 29 29 28 28 28 28 29 29 29 28 28 28 27 28 28 28 28 28 29 31 35 36 37 38 38 38 38 34 34 33 32 33 32 32 32 33 33
26 25 25 25 25 25 25 25 25 25 25 26 27 27 28 27 27 27 26 26 27 27 27 27 29 34 35 35 36 37 38 35 33 32 31 31 32 32 32 33 33 33
23 22 21 21 22 21 21 21 22 22 23 24 23 23 24 24 24 25 25 25 25 26 25 26 27 30 33 34 35 35 35 32 32 31 31 30 31 32 32 33 33 33
19 19 18 18 18 17 18 18 18 18 19 20 19 19 20 21 22 22 23 24 24 24 25 24 25 28 32 33 33 34 34 31 30 30 29 29 30 31 32 32 33 34
15 15 15 14 13 13 13 12 13 13 15 16 16 17 17 19 20 20 21 22 22 23 25 25 24 26 30 31 32 33 31 29 29 28 28 28 29 29 30 31 32 33
11 10 10 10 9 9 9 10 11 12 12 12 13 14 15 16 17 17 17 18 20 20 21 22 22 22 25 29 30 31 31 28 27 26 25 26 27 28 28 29 31 31
MSLP
1017.35 1017.35 1017.39 1017.35 1017.35 1017.39 1017.23 1017.07 1016.87 1016.71 1016.55 1016.43 1016.43 1016.43 1016.43 1016.31 1016.23 1016.31 1016.19 1016.11 1016.03 1016.03 1016.07 1016.07 1016.07 1016.07 1016.03 1016.03 1016.07 1016.07 1016.07 1016.03 1015.95 1015.95 1015.91 1015.95 1015.95 1016.03 1016.03 1016.03 1016.03 1015.95
1017.79 1017.79 1017.79 1017.79 1017.79 1017.71 1017.55 1017.39 1017.23 1017.03 1016.87 1016.75 1016.67 1016.63 1016.55 1016.51 1016.47 1016.43 1016.31 1016.11 1016.03 1015.99 1015.95 1015.99 1016.07 1016.07 1016.07 1016.03 1016.03 1016.03 1016.03 1016.03 1015.91 1015.91 1015.83 1015.79 1015.79 1015.87 1015.75 1015.83 1015.83 1015.83
1018.11 1018.07 1018.07 1018.11 1018.23 1018.19 1018.03 1017.87 1017.75 1017.59 1017.43 1017.19 1017.07 1016.99 1016.91 1016.83 1016.75 1016.63 1016.35 1016.11 1016.03 1015.99 1015.95 1015.91 1015.95 1015.95 1015.99 1016.03 1016.07 1016.03 1015.99 1015.99 1015.95 1015.87 1015.79 1015.71 1015.71 1015.71 1015.63 1015.71 1015.63 1015.59
1018.31 1018.35 1018.43 1018.43 1018.47 1018.51 1018.43 1018.31 1018.19 1018.07 1017.91 1017.75 1017.63 1017.51 1017.43 1017.31 1017.15 1016.87 1016.59 1016.27 1016.11 1016.07 1015.99 1015.95 1015.91 1015.91 1015.95 1015.95 1015.95 1016.03 1015.99 1015.91 1015.87 1015.87 1015.79 1015.75 1015.71 1015.63 1015.55 1015.55 1015.47 1015.43
1018.63 1018.63 1018.67 1018.67 1018.71 1018.79 1018.71 1018.63 1018.51 1018.43 1018.31 1018.19 1017.95 1017.83 1017.71 1017.55 1017.27 1016.95 1016.67 1016.47 1016.35 1016.19 1016.11 1015.95 1015.91 1015.87 1015.87 1015.91 1015.95 1015.91 1015.83 1015.79 1015.79 1015.83 1015.79 1015.71 1015.63 1015.59 1015.39 1015.43 1015.27 1015.19
1019.07 1018.95 1018.87 1018.83 1018.83 1018.83 1018.87 1018.91 1018.87 1018.71 1018.47 1018.23 1017.99 1017.83 1017.63 1017.39 1017.15 1016.91 1016.75 1016.67 1016.51 1016.39 1016.27 1016.11 1015.95 1015.87 1015.83 1015.79 1015.83 1015.87 1015.91 1015.83 1015.63 1015.59 1015.59 1015.59 1015.55 1015.47 1015.39 1015.27 1015.11 1014.99
1019.03 1018.95 1018.95 1019.03 1018.99 1018.99 1019.07 1019.11 1019.07 1018.87 1018.67 1018.47 1018.23 1017.99 1017.79 1017.55 1017.27 1017.07 1016.95 1016.91 1016.79 1016.59 1016.39 1016.23 1016.03 1015.87 1015.75 1015.71 1015.67 1015.71 1015.75 1015.79 1015.75 1015.71 1015.47 1015.31 1015.27 1015.15 1015.19 1015.15 1014.99 1014.83
1019.23 1019.19 1019.23 1019.23 1019.23 1019.19 1019.11 1019.07 1018.95 1018.79 1018.71 1018.55 1018.43 1018.31 1018.15 1017.91 1017.67 1017.55 1017.39 1017.23 1017.03 1016.79 1016.55 1016.35 1016.15 1015.95 1015.79 1015.67 1015.55 1015.55 1015.55 1015.63 1015.67 1015.59 1015.47 1015.35 1015.19 1014.91 1014.75 1014.75 1014.75 1014.71
1019.43 1019.47 1019.51 1019.51 1019.51 1019.43 1019.35 1019.27 1019.23 1019.11 1019.03 1018.87 1018.63 1018.35 1018.11 1017.99 1017.87 1017.71 1017.55 1017.43 1017.23 1016.99 1016.71 1016.43 1016.15 1015.95 1015.79 1015.59 1015.43 1015.35 1015.27 1015.27 1015.31 1015.27 1015.23 1015.15 1015.03 1014.79 1014.59 1014.51 1014.39 1014.31
1019.55 1019.59 1019.63 1019.63 1019.59 1019.55 1019.55 1019.55 1019.51 1019.39 1019.23 1019.11 1018.91 1018.71 1018.39 1018.03 1017.79 1017.59 1017.39 1017.31 1017.19 1017.03 1016.83 1016.63 1016.39 1016.15 1015.87 1015.63 1015.39 1015.19 1015.07 1014.99 1014.95 1014.95 1014.95 1014.91 1014.79 1014.63 1014.51 1014.35 1014.07 1013.91
1019.71 1019.67 1019.71 1019.67 1019.59 1019.55 1019.51 1019.47 1019.43 1019.31 1019.15 1019.07 1018.91 1018.75 1018.51 1018.27 1017.95 1017.71 1017.51 1017.31 1017.07 1016.83 1016.63 1016.47 1016.35 1016.23 1016.03 1015.79 1015.47 1015.23 1015.03 1014.87 1014.75 1014.67 1014.55 1014.47 1014.35 1014.23 1014.07 1013.95 1013.71 1013.51
1019.83 1019.79 1019.79 1019.71 1019.63 1019.51 1019.43 1019.35 1019.27 1019.19 1019.11 1019.03 1018.99 1018.79 1018.63 1018.47 1018.23 1017.95 1017.71 1017.43 1017.23 1016.95 1016.67 1016.39 1016.11 1015.91 1015.79 1015.63 1015.39 1015.15 1014.91 1014.71 1014.55 1014.39 1014.19 1014.03 1013.87 1013.67 1013.59 1013.47 1013.31 1013.15
1019.63 1019.63 1019.59 1019.59 1019.55 1019.47 1019.39 1019.27 1019.19 1019.07 1018.95 1018.87 1018.75 1018.67 1018.55 1018.43 1018.23 1017.99 1017.71 1017.47 1017.19 1016.87 1016.67 1016.43 1016.15 1015.87 1015.59 1015.31 1015.07 1014.87 1014.67 1014.51 1014.31 1014.15 1013.91 1013.75 1013.51 1013.35 1013.19 1013.11 1013.03 1012.99
1019.47 1019.39 1019.31 1019.23 1019.11 1019.03 1018.95 1018.87 1018.83 1018.75 1018.67 1018.55 1018.47 1018.35 1018.23 1018.11 1017.95 1017.75 1017.47 1017.35 1017.11 1016.83 1016.55 1016.27 1016.03 1015.75 1015.51 1015.27 1015.03 1014.79 1014.55 1014.31 1014.11 1013.91 1013.75 1013.47 1013.19 1012.99 1012.91 1012.87 1012.87 1012.83
1019.39 1019.31 1019.27 1019.19 1019.11 1018.99 1018.83 1018.67 1018.51 1018.43 1018.35 1018.27 1018.23 1018.19 1018.03 1017.87 1017.67 1017.47 1017.27 1017.07 1016.87 1016.67 1016.39 1016.23 1016.03 1015.79 1015.51 1015.27 1015.03 1014.75 1014.59 1014.43 1014.15 1013.99 1013.79 1013.51 1013.15 1012.87 1012.63 1012.47 1012.39 1012.35
1019.47 1019.35 1019.23 1019.11 1018.99 1018.83 1018.67 1018.55 1018.43 1018.27 1018.15 1018.03 1017.91 1017.83 1017.71 1017.59 1017.43 1017.27 1017.07 1016.87 1016.59 1016.39 1016.19 1015.99 1015.71 1015.51 1015.27 1015.07 1014.87 1014.67 1014.47 1014.31 1014.15 1013.95 1013.71 1013.39 1013.07 1012.67 1012.31 1012.11 1011.91 1011.79
1019.55 1019.39 1019.27 1019.15 1018.99 1018.83 1018.67 1018.51 1018.35 1018.15 1017.99 1017.79 1017.63 1017.51 1017.35 1017.19 1017.07 1016.83 1016.59 1016.39 1016.19 1015.91 1015.67 1015.51 1015.27 1015.03 1014.79 1014.55 1014.35 1014.07 1013.95 1013.83 1013.71 1013.43 1013.15 1012.83 1012.51 1012.15 1011.75 1011.47 1011.31 1011.23
1019.71 1019.51 1019.35 1019.11 1018.91 1018.79 1018.63 1018.47 1018.27 1018.07 1017.87 1017.67 1017.55 1017.35 1017.15 1016.99 1016.75 1016.51 1016.27 1016.07 1015.79 1015.47 1015.11 1014.75 1014.43 1014.23 1013.99 1013.83 1013.63 1013.39 1013.27 1013.11 1012.95 1012.79 1012.55 1012.31 1011.99 1011.67 1011.35 1011.07 1010.91 1010.75
1019.87 1019.71 1019.51 1019.23 1018.99 1018.75 1018.59 1018.35 1018.11 1017.87 1017.63 1017.43 1017.19 1016.99 1016.87 1016.79 1016.55 1016.35 1016.07 1015.79 1015.55 1015.23 1014.87 1014.43 1014.03 1013.63 1013.27 1013.07 1012.87 1012.67 1012.43 1012.27 1012.19 1012.03 1011.91 1011.67 1011.47 1011.27 1011.03 1010.79 1010.59 1010.47
1019.87 1019.67 1019.43 1019.19 1018.95 1018.75 1018.55 1018.31 1018.03 1017.71 1017.43 1017.23 1016.99 1016.83 1016.67 1016.43 1016.15 1015.95 1015.71 1015.47 1015.23 1014.95 1014.55 1014.11 1013.71 1013.31 1012.95 1012.67 1012.39 1012.11 1011.83 1011.67 1011.47 1011.35 1011.15 1010.99 1010.87 1010.71 1010.59 1010.43 1010.23 1010.15
1020.07 1019.83 1019.59 1019.31 1019.03 1018.87 1018.67 1018.39 1018.15 1017.79 1017.51 1017.27 1017.03 1016.79 1016.51 1016.19 1015.87 1015.59 1015.27 1015.03 1014.79 1014.59 1014.27 1013.79 1013.23 1012.79 1012.47 1012.23 1011.95 1011.71 1011.43 1011.23 1010.99 1010.83 1010.59 1010.35 1010.11 1009.95 1009.87 1009.75 1009.63 1009.55
1020.51 1020.39 1020.23 1019.95 1019.71 1019.43 1019.15 1018.87 1018.59 1018.35 1017.99 1017.55 1017.23 1016.83 1016.47 1016.07 1015.63 1015.47 1015.03 1014.75 1014.43 1014.19 1013.87 1013.31 1012.79 1012.39 1012.03 1011.79 1011.59 1011.27 1010.99 1010.71 1010.51 1010.31 1010.03 1009.79 1009.55 1009.35 1009.15 1008.95 1008.83 1008.75
1021.19 1021.11 1020.83 1020.47 1020.15 1019.87 1019.59 1019.27 1018.91 1018.51 1018.19 1017.91 1017.59 1017.19 1016.67 1016.19 1015.75 1015.31 1014.95 1014.51 1014.03 1013.71 1013.43 1012.83 1012.31 1011.87 1011.55 1011.27 1011.07 1010.83 1010.63 1010.27 1009.99 1009.75 1009.47 1009.23 1008.91 1008.67 1008.47 1008.31 1008.11 1007.91
1021.87 1021.71 1021.43 1021.03 1020.71 1020.43 1020.07 1019.71 1019.43 1019.11 1018.83 1018.43 1018.11 1017.47 1016.79 1016.19 1015.71 1015.19 1014.67 1014.27 1013.83 1013.31 1012.99 1012.55 1011.87 1011.39 1011.03 1010.71 1010.55 1010.27 1010.07 1009.83 1009.63 1009.39 1009.03 1008.79 1008.35 1008.03 1007.75 1007.51 1007.27 1007.03
1022.47 1022.39 1022.15 1021.79 1021.51 1021.23 1020.99 1020.67 1020.19 1019.75 1019.19 1018.83 1018.31 1017.67 1016.83 1016.15 1015.47 1014.95 1014.31 1013.83 1013.43 1013.03 1012.55 1012.15 1011.47 1010.91 1010.51 1010.19 1010.11 1009.95 1009.83 1009.71 1009.51 1009.15 1008.71 1008.23 1007.91 1007.39 1007.07 1006.79 1006.51 1006.23
1023.11 1023.03 1022.83 1022.59 1022.23 1021.79 1021.43 1021.07 1020.51 1019.95 1019.43 1018.99 1018.43 1017.99 1017.15 1016.31 1015.63 1015.03 1014.47 1013.71 1013.23 1012.79 1012.31 1011.79 1011.27 1010.59 1010.31 1010.03 1009.91 1009.67 1009.43 1009.31 1009.11 1008.95 1008.39 1007.95 1007.55 1007.11 1006.67 1006.15 1005.87 1005.47
Wind_Speed
8 7 7 8 7 7 7 7 6 6 6 6 6 6 6 6 6 3 4 4 4 4 4 4 5 4 5 5 5 6 6 7 7 6 7 8 9 9 11 9 8 8
9 8 7 7 6 7 7 7 8 7 7 6 7 6 6 6 5 5 4 3 3 4 4 4 4 5 5 5 5 6 6 6 7 5 7 7 8 8 11 10 10 8
9 9 9 9 8 9 8 8 7 7 7 8 8 7 7 6 7 6 6 3 3 4 4 4 5 5 5 5 5 5 6 6 7 6 6 7 7 8 8 8 10 10
9 9 8 7 7 8 7 7 7 7 7 7 7 7 6 6 7 7 7 7 5 5 5 4 5 5 5 5 5 5 5 6 6 6 7 7 6 7 8 7 8 9
8 8 8 7 5 7 7 7 8 7 7 7 6 6 6 6 6 6 7 7 6 5 5 5 5 5 5 5 5 6 6 7 6 5 6 7 7 7 7 7 8 10
6 6 7 7 7 7 8 8 8 7 7 8 8 7 7 8 7 7 7 7 7 6 6 5 5 5 5 5 5 6 6 7 7 6 7 8 8 7 6 7 8 10
7 7 8 7 8 6 7 6 6 6 6 6 6 8 7 9 8 8 8 8 7 7 6 6 5 6 5 5 5 6 7 6 7 7 8 8 7 9 7 7 9 10
5 6 7 7 8 7 7 7 8 8 8 7 6 5 5 7 7 7 7 8 7 8 7 6 5 5 5 5 5 6 6 6 6 7 8 8 7 9 8 8 8 10
4 4 4 4 5 6 8 9 8 8 7 8 9 9 8 6 5 5 6 6 6 7 7 7 7 6 6 5 5 6 7 7 7 7 8 9 9 10 9 8 9 10
4 4 4 4 4 4 4 5 5 6 6 7 8 7 9 10 9 9 8 6 5 6 6 6 7 7 7 6 6 6 6 7 7 8 8 9 10 10 9 9 10 10
4 3 4 4 4 3 3 4 4 4 4 6 7 8 8 9 9 8 8 9 10 10 9 7 7 7 7 7 6 5 6 7 7 7 8 9 10 10 10 9 10 10
2 1 2 3 4 4 4 4 4 4 4 4 4 5 6 7 9 9 8 9 9 9 9 10 9 8 7 7 7 7 6 7 7 7 7 8 8 8 8 8 10 10
3 3 3 3 3 3 3 3 4 4 4 4 4 4 5 5 6 7 7 8 10 9 9 9 9 9 9 9 9 9 8 7 8 8 8 8 7 8 7 8 9 10
4 4 4 5 5 5 4 4 4 4 4 5 4 5 5 6 6 7 7 6 8 9 9 9 10 9 9 9 9 9 9 8 8 9 9 9 9 9 8 8 8 8
5 5 5 5 6 5 6 6 6 6 6 6 5 6 6 6 6 6 7 8 8 9 9 8 8 9 8 8 9 10 8 8 9 9 9 10 10 10 9 10 10 10
5 5 6 7 7 8 8 7 7 8 8 8 8 7 8 8 7 7 7 7 7 7 8 8 8 7 10 16 14 10 9 8 9 9 9 9 10 10 10 10 10 10
7 7 7 8 8 7 7 7 9 9 8 8 8 8 10 9 9 10 10 9 10 10 9 8 7 8 14 16 17 19 13 9 9 10 9 10 10 10 11 11 10 10
8 10 11 12 10 10 10 9 9 9 9 9 9 9 9 8 9 10 11 11 11 11 12 11 10 11 16 17 19 20 17 12 9 9 9 9 10 11 10 10 10 10
8 8 9 11 11 11 11 11 11 12 12 11 11 10 8 8 10 11 11 11 11 13 13 13 13 12 18 19 20 21 21 17 10 10 10 10 11 11 11 11 10 10
10 9 10 10 10 10 10 11 12 13 12 10 10 10 10 11 12 13 13 13 13 13 13 12 14 13 20 22 22 23 23 20 11 12 12 12 12 11 11 11 11 11
9 9 10 10 11 11 11 11 11 11 11 11 10 11 12 13 13 13 14 14 14 14 14 15 15 20 22 23 23 24 25 21 13 12 12 12 12 12 12 12 12 12
9 10 11 12 13 13 14 14 13 13 14 13 13 12 12 12 13 13 15 16 16 15 15 17 16 23 26 25 26 25 27 16 12 13 13 12 13 13 13 12 12 12
11 12 14 14 13 14 14 14 14 15 14 12 14 14 14 15 15 15 15 16 17 17 17 17 17 20 26 28 27 29 22 14 13 12 12 13 14 13 13 13 13 13
12 12 13 14 13 13 14 14 13 13 14 13 14 16 17 17 16 16 16 16 17 18 18 18 18 21 29 30 31 30 24 15 12 12 13 13 14 14 13 13 15 21
10 11 12 13 14 14 13 15 16 15 15 14 15 15 16 16 15 15 16 16 16 17 19 21 19 20 26 29 30 29 24 16 15 13 15 14 14 15 14 13 14 16
10 11 13 13 14 15 14 14 12 12 13 14 15 13 13 14 14 14 16 17 17 17 17 18 20 20 21 31 31 31 31 20 14 14 15 16 15 15 15 14 15 14
Wind_Direction
31 27 19 16 10 8 358 355 351 356 349 350 353 342 343 328 335 285 231 228 227 240 254 255 256 256 250 245 243 242 240 242 242 230 227 223 228 227 235 238 239 230
27 27 24 21 15 5 359 358 355 356 351 353 347 342 333 338 324 332 296 250 254 247 254 261 261 259 258 252 248 244 248 249 251 243 236 231 231 226 234 234 238 243
27 25 24 24 18 8 4 2 4 357 358 350 352 351 343 339 335 327 321 304 282 278 271 262 263 259 255 256 253 246 243 247 251 252 246 240 235 230 235 230 238 236
25 24 21 19 21 15 7 9 6 6 356 359 353 344 344 336 337 336 331 328 319 302 291 288 272 270 266 258 254 253 249 247 245 246 252 255 245 237 237 229 237 239
17 17 17 19 17 20 9 9 6 2 1 356 347 343 340 335 335 334 333 328 325 307 297 286 281 276 271 271 262 259 253 250 256 250 250 252 251 241 241 229 235 239
13 17 14 12 7 16 12 10 1 357 354 359 351 345 348 345 341 341 335 332 327 320 307 294 281 271 265 261 264 257 257 258 253 240 243 247 254 248 246 236 238 240
2 10 9 6 5 7 10 0 357 352 354 352 343 351 353 346 347 343 337 331 324 317 311 305 293 282 271 258 254 256 256 251 255 251 248 247 239 249 248 246 246 245
354 358 4 359 5 358 0 355 354 352 349 350 353 339 354 343 342 338 334 330 328 319 311 301 297 290 280 267 256 255 255 247 251 249 252 252 245 246 241 239 242 247
355 351 8 353 7 347 356 349 348 344 347 350 344 341 342 344 333 331 330 330 326 321 317 314 306 299 288 274 261 251 252 252 246 246 248 251 251 250 246 242 244 242
347 349 5 345 353 332 351 332 336 332 336 344 337 336 338 334 338 335 335 330 323 318 320 315 311 305 303 297 282 268 257 252 249 245 243 244 245 248 247 243 242 247
335 350 351 339 330 322 324 320 319 317 329 336 334 331 331 331 328 331 329 331 328 325 321 316 309 305 299 291 282 278 273 268 260 251 246 244 243 244 244 243 246 246
292 301 310 311 308 308 306 306 310 310 309 311 301 303 313 318 316 318 321 317 317 314 315 313 311 308 302 293 288 282 277 272 270 266 262 257 254 249 247 246 250 251
298 296 287 284 269 256 252 266 278 277 281 283 279 281 287 286 286 291 297 304 307 307 306 304 304 303 303 301 298 294 287 281 275 272 269 269 265 263 258 253 250 252
301 296 303 300 300 297 290 283 283 274 269 265 266 271 268 270 275 277 275 278 281 287 291 298 299 299 296 294 292 291 290 288 285 282 280 276 270 262 257 254 252 252
314 316 311 311 305 303 300 299 292 287 285 284 276 271 266 260 261 262 270 270 264 264 269 271 277 280 287 291 293 289 284 283 283 278 275 276 275 271 263 258 257 255
307 310 310 307 310 303 299 295 293 293 292 289 285 280 282 282 278 274 266 263 264 261 255 255 256 257 262 267 271 273 276 277 276 272 268 267 269 271 267 260 254 253
321 312 309 306 295 294 294 296 293 291 285 281 281 284 285 287 287 287 287 285 282 279 270 254 247 247 251 253 258 266 270 267 267 272 274 271 270 269 272 271 267 260
311 311 311 308 308 304 301 297 294 291 288 286 286 286 281 277 278 278 282 285 285 283 280 276 271 259 257 256 259 261 261 260 257 261 263 267 267 267 267 269 268 267
302 301 299 299 300 300 300 300 297 295 293 293 290 287 287 284 281 282 281 278 274 275 274 273 273 266 266 268 271 271 269 266 259 255 256 257 260 261 263 263 261 261
306 302 297 296 297 299 299 296 295 291 291 290 291 292 289 287 287 287 288 287 285 281 277 272 269 261 264 265 266 267 269 270 262 262 261 256 252 249 252 256 254 254
313 312 311 312 312 312 310 305 302 303 302 303 301 298 294 290 289 289 286 285 286 285 285 284 280 274 270 267 264 265 267 267 261 260 261 260 256 252 250 248 250 249
326 326 322 320 317 315 312 309 308 306 305 305 303 299 294 292 289 286 286 285 283 282 281 279 277 279 281 280 277 275 272 265 259 255 256 256 255 255 252 252 251 250
330 324 317 312 311 311 308 307 306 305 304 306 301 297 293 289 286 284 284 282 281 279 276 274 275 274 274 276 278 279 277 267 261 257 255 254 255 254 252 252 251 248
326 321 316 314 313 310 309 309 309 306 303 305 299 297 291 287 285 283 279 275 274 274 272 275 274 272 273 274 274 273 273 274 270 266 260 259 261 258 257 254 249 247
324 319 314 312 311 308 309 306 304 301 300 300 294 291 287 288 285 283 281 278 274 273 273 272 272 272 272 274 275 276 277 276 274 270 268 262 261 261 260 257 254 250
319 317 311 308 304 303 302 297 297 298 296 296 294 293 291 289 288 286 285 283 281 277 274 270 272 272 271 273 274 274 274 274 272 273 269 269 266 265 265 261 255 252